Temperature
9 9 9 9 9 9 9 9 10 10 10 10 10 10 10 10 10 10 10 10 10 10 10 10 10 10 10 10 10 10 10 10 10 10 10 10 10 10 10 10 10 10 10
9 9 9 9 9 9 9 9 9 9 9 9 9 9 9 10 10 10 10 10 10 10 10 10 10 10 10 10 10 10 10 10 10 10 10 10 10 10 10 10 10 10 10
8 8 8 8 8 8 8 8 8 8 9 9 9 9 9 9 9 9 10 10 10 10 10 10 10 10 10 9 10 9 9 9 9 9 9 9 9 9 9 9 10 10 10
8 8 8 8 8 8 8 8 8 8 8 8 8 8 8 8 9 9 9 9 9 9 9 9 9 9 9 9 9 9 9 9 9 9 9 9 9 9 9 9 9 9 9
7 7 7 7 7 7 7 7 7 7 8 8 8 8 8 8 8 8 8 8 9 9 9 9 9 9 9 8 8 8 9 8 9 8 8 8 8 9 9 9 9 9 9
6 6 6 6 6 6 7 7 7 7 7 7 7 7 7 7 7 7 8 8 8 8 8 8 8 8 8 8 8 8 8 8 8 8 8 8 8 8 8 8 8 8 8
5 5 5 5 6 6 6 6 6 6 6 6 6 6 6 6 7 7 7 7 7 7 7 7 7 7 7 7 7 7 7 7 7 7 7 7 7 7 7 7 7 8 8
5 5 5 5 5 5 5 5 5 5 5 5 6 5 6 6 6 6 6 6 6 6 7 7 7 7 7 7 7 7 6 7 7 7 7 7 7 7 7 7 7 7 7
4 4 4 4 4 4 5 5 5 5 5 5 5 5 5 5 5 5 6 6 6 6 6 6 6 6 6 6 6 6 6 6 6 6 6 6 6 6 6 6 6 6 6
4 4 4 4 4 4 4 4 4 4 4 4 4 5 5 5 4 4 5 5 5 5 5 5 5 5 5 5 5 5 5 5 5 5 5 5 5 5 5 5 6 6 6
3 3 3 3 3 3 4 4 4 4 4 4 4 4 4 4 4 4 4 4 5 5 5 5 5 5 5 5 5 5 5 5 5 5 5 5 5 5 5 5 5 5 5
3 3 3 3 3 3 3 3 3 3 3 3 3 3 3 3 4 4 3 3 4 4 4 4 4 4 4 4 4 4 4 4 4 4 4 4 4 4 4 4 4 4 4
2 2 2 2 2 2 3 3 3 3 3 3 3 3 3 3 3 3 3 3 3 3 3 4 3 3 4 4 4 4 4 4 4 4 3 3 3 3 3 3 3 3 3
2 2 2 2 2 2 2 2 2 2 2 2 2 2 2 2 2 2 2 2 2 2 2 3 3 3 3 3 3 3 3 3 3 3 3 3 3 3 3 2 2 3 3
1 1 1 1 1 1 1 2 2 2 2 2 2 2 2 2 2 2 2 2 2 1 1 2 2 2 2 2 2 2 3 3 3 3 3 2 2 2 2 2 2 2 2
0 1 1 1 1 1 1 1 1 1 1 1 1 1 1 1 2 2 2 1 1 1 1 1 1 1 1 1 2 2 2 2 2 2 2 2 2 2 1 1 1 1 1
-0 0 0 0 0 1 0 1 1 1 1 1 1 1 1 1 1 1 1 1 1 1 1 1 1 1 1 1 1 1 1 1 2 1 1 1 1 1 1 1 1 1 1
-1 -1 -0 -0 -0 0 0 0 0 0 0 0 0 0 0 0 0 0 0 0 0 0 0 0 0 0 0 0 0 0 1 1 1 1 1 1 1 1 1 1 0 0 0
-1 -1 -1 -1 -1 -1 -0 -0 -0 -0 -0 -0 -0 -0 -0 -0 -0 -0 -0 -0 -0 -0 -0 -0 -0 -0 -0 -0 -0 -0 -0 0 0 0 0 0 0 0 -0 -0 -0 -0 -0
-2 -2 -1 -1 -1 -1 -1 -1 -1 -1 -1 -1 -1 -1 -1 -1 -1 -1 -1 -1 -1 -1 -1 -1 -1 -1 -1 -1 -1 -1 -1 -0 -0 -0 -0 -1 -1 -1 -0 -1 -1 -1 -1
-2 -2 -2 -2 -2 -2 -2 -2 -2 -2 -2 -2 -2 -1 -1 -1 -1 -1 -1 -1 -1 -2 -2 -2 -2 -1 -1 -1 -1 -1 -1 -1 -1 -1 -1 -1 -1 -1 -1 -1 -1 -1 -1
-3 -3 -3 -3 -2 -2 -3 -3 -3 -3 -3 -3 -2 -2 -2 -2 -2 -2 -2 -2 -2 -2 -2 -3 -2 -2 -2 -2 -2 -2 -2 -2 -2 -2 -2 -2 -2 -2 -2 -2 -2 -2 -2
-3 -3 -3 -3 -3 -3 -3 -3 -4 -4 -4 -3 -3 -3 -3 -3 -3 -3 -3 -3 -3 -3 -3 -3 -3 -3 -3 -3 -3 -3 -3 -3 -3 -3 -3 -2 -2 -2 -2 -2 -2 -2 -2
-4 -4 -4 -4 -4 -4 -4 -4 -4 -4 -4 -4 -4 -4 -4 -4 -3 -4 -4 -4 -3 -3 -4 -4 -4 -4 -4 -4 -4 -4 -4 -4 -4 -4 -4 -4 -3 -3 -3 -3 -3 -3 -3
-5 -5 -5 -5 -5 -5 -5 -5 -5 -5 -5 -5 -5 -5 -4 -4 -4 -4 -4 -4 -4 -4 -4 -4 -4 -4 -4 -4 -5 -5 -5 -5 -4 -4 -4 -5 -4 -4 -4 -4 -4 -4 -4
-6 -6 -6 -6 -6 -5 -5 -5 -6 -6 -6 -6 -5 -5 -5 -5 -5 -5 -5 -5 -5 -5 -5 -5 -5 -5 -5 -5 -5 -5 -5 -5 -6 -5 -5 -5 -5 -5 -5 -5 -5 -4 -4
Wind_Speed
3 3 3 3 3 3 3 3 3 3 3 3 3 4 3 4 3 3 3 5 5 5 5 6 6 7 7 7 7 6 7 7 8 8 7 6 5 5 5 4 4 4 5
3 2 2 2 2 2 2 2 2 2 2 3 3 3 3 3 3 3 4 4 5 5 5 4 5 6 7 8 7 7 7 8 8 7 7 6 5 5 4 4 5 5 5
3 3 2 1 1 1 2 3 3 3 3 3 2 2 3 3 3 3 3 3 4 4 4 4 4 5 6 7 7 8 7 7 7 6 6 5 5 5 4 3 4 4 4
3 3 2 1 1 2 2 2 2 1 1 1 1 1 2 2 3 3 3 3 3 3 3 4 4 4 5 6 6 6 6 6 6 5 5 4 4 4 4 4 3 3 3
3 3 2 1 1 2 2 2 1 1 1 1 0 1 1 1 1 2 3 3 3 3 3 3 3 4 4 4 4 5 5 5 4 4 4 3 4 4 5 5 5 4 2
2 3 2 2 2 2 1 1 1 1 1 1 1 1 2 1 1 2 1 2 2 3 3 3 2 2 3 3 3 3 3 3 3 2 2 2 3 3 3 4 5 6 5
2 3 2 1 2 1 1 2 2 2 1 1 1 1 2 2 1 1 1 2 2 2 3 2 2 3 2 2 1 2 2 2 2 2 2 1 1 1 2 2 3 4 4
2 2 1 1 1 1 1 2 2 1 1 1 2 2 0 2 2 1 1 0 1 2 2 2 2 2 2 2 0 0 1 1 1 1 2 1 1 1 0 1 1 2 3
1 1 1 1 1 1 1 1 2 3 3 1 1 2 2 3 1 2 2 1 0 1 1 2 2 2 1 1 1 1 2 2 2 2 2 2 2 2 2 2 2 2 2
2 2 2 1 2 1 2 2 1 2 4 3 1 0 1 2 2 1 2 2 1 0 1 1 1 1 0 1 1 1 2 2 3 3 3 3 2 2 2 2 3 2 2
2 2 2 2 1 2 2 2 1 1 2 3 3 1 0 0 1 2 2 1 2 1 1 1 0 1 1 1 1 2 2 2 3 4 3 3 3 3 3 3 3 3 3
2 2 2 2 2 2 3 2 2 2 1 2 2 2 2 2 2 1 2 2 2 2 2 1 1 1 2 1 2 2 2 3 3 3 3 2 3 3 3 3 3 4 4
2 3 2 2 2 2 3 3 2 2 2 1 2 2 2 2 1 1 2 1 1 2 1 1 2 2 1 1 2 2 2 2 3 3 3 3 3 2 2 3 3 4 4
3 4 3 3 3 3 3 3 2 2 2 1 1 1 1 1 2 2 2 2 1 1 2 2 1 1 1 1 1 1 2 2 3 3 3 3 3 2 2 3 3 4 5
3 3 3 3 3 3 3 3 2 2 2 2 2 2 1 1 1 2 2 2 3 3 3 2 1 1 2 1 1 1 2 3 3 3 3 3 3 2 2 2 3 4 5
3 3 3 3 3 3 3 3 2 2 2 2 2 2 1 1 1 1 1 1 2 3 3 2 2 1 1 2 2 2 2 2 3 3 3 3 3 3 2 2 3 4 5
3 4 4 3 3 3 3 3 2 2 2 2 2 2 2 1 1 1 1 1 1 2 3 3 2 1 1 1 2 2 3 2 3 3 3 3 3 3 2 2 3 5 5
3 4 4 4 4 4 4 4 4 4 3 3 2 2 2 2 2 2 1 1 1 2 3 3 2 1 2 2 1 2 2 2 2 3 4 4 3 4 3 4 4 5 5
3 3 3 4 4 4 5 5 5 5 4 4 3 4 3 3 3 2 2 2 2 1 2 3 3 2 2 1 1 2 2 2 2 3 4 4 4 4 5 5 5 5 5
3 3 3 4 4 4 4 5 5 5 4 4 4 4 4 4 5 4 3 3 2 2 1 2 3 2 2 2 1 1 2 2 2 2 3 4 4 4 5 5 6 6 6
3 3 3 3 3 3 4 4 5 5 5 5 4 4 5 6 6 5 4 4 3 3 2 2 3 3 2 2 2 2 2 2 3 2 1 2 2 2 3 5 5 6 6
3 3 3 3 4 4 5 6 4 3 4 5 5 4 5 5 6 6 6 6 5 5 4 4 4 4 4 3 2 2 2 2 2 1 1 3 2 2 3 4 5 6 6
3 3 3 4 4 5 7 7 6 3 4 4 4 4 4 4 5 3 4 4 5 7 7 6 6 6 5 4 3 3 3 3 4 2 1 3 2 3 4 5 7 7 6
3 4 4 4 4 5 7 7 6 3 3 4 4 5 5 5 5 5 3 3 3 4 5 5 5 6 5 5 5 4 3 3 3 2 2 2 2 3 4 5 7 6 6
3 4 4 3 4 5 7 7 6 3 3 4 4 4 5 5 7 7 4 4 4 4 5 6 7 7 7 7 6 3 3 3 3 3 2 2 2 2 3 3 5 6 6
3 3 3 3 4 5 6 7 6 2 3 3 3 4 6 6 7 7 5 5 5 5 4 3 4 4 4 4 6 4 4 4 3 3 2 2 2 1 2 2 3 4 5
Wind_Direction
96 93 90 83 79 74 70 77 86 84 72 68 79 86 79 77 84 81 77 82 85 87 100 115 115 116 115 109 108 109 105 103 95 90 85 87 85 76 68 62 66 67 58
101 103 97 81 65 59 62 74 89 99 92 86 78 77 80 87 92 93 89 88 86 85 87 102 112 115 112 109 106 106 105 102 95 90 85 81 80 74 69 64 62 59 51
83 108 111 105 82 77 87 82 75 83 81 78 71 66 70 78 89 91 90 95 95 89 86 85 98 113 111 109 106 104 102 101 98 94 89 79 75 69 62 58 58 58 50
78 90 105 131 148 122 108 102 97 89 71 71 57 37 45 63 79 87 88 92 97 94 90 85 86 108 116 112 108 107 105 101 98 92 87 79 67 61 55 51 50 56 49
83 94 92 96 133 122 118 131 109 123 119 75 41 17 29 65 74 76 76 82 93 95 96 95 91 91 105 117 117 114 113 106 99 90 84 79 70 61 52 50 48 48 41
99 88 97 72 74 118 140 138 130 106 140 147 90 25 351 5 70 77 66 65 80 99 96 87 85 85 94 102 123 128 122 114 111 105 92 85 79 69 52 48 45 45 42
121 100 86 113 81 120 172 155 143 138 146 136 109 41 350 341 7 35 61 61 53 70 92 93 89 78 75 99 110 136 142 139 136 135 129 126 103 72 42 38 37 37 36
143 131 119 175 133 95 106 159 136 161 192 161 142 141 286 320 328 328 356 127 68 57 70 95 105 101 76 60 15 182 219 211 203 202 203 211 210 224 336 7 6 17 22
194 167 157 189 173 150 167 194 175 171 185 217 186 158 167 216 268 318 328 322 122 97 64 63 89 97 100 53 346 281 257 239 237 243 236 239 242 251 279 316 325 337 0
223 203 175 195 183 172 189 199 188 197 176 193 219 269 208 161 172 235 314 336 349 167 172 88 75 67 85 13 302 278 256 260 248 247 254 262 262 266 290 303 310 321 330
232 219 204 193 202 192 198 202 200 213 195 191 191 189 178 14 148 174 220 288 330 303 269 194 158 294 265 293 290 271 250 256 258 252 250 265 275 280 292 302 312 317 320
255 254 232 213 219 213 204 206 205 206 212 204 188 186 181 189 197 182 204 236 269 284 288 241 211 249 260 265 277 280 254 247 259 268 266 271 285 288 290 300 309 312 313
254 250 257 240 236 234 218 202 200 208 197 200 196 201 203 206 189 191 192 210 242 273 276 255 231 238 260 277 280 267 257 255 256 264 272 280 289 297 307 308 314 317 314
238 242 245 244 245 232 225 207 203 208 195 197 206 193 202 214 193 192 193 186 219 265 255 258 293 272 314 282 290 246 282 273 268 268 276 281 284 290 291 298 307 312 311
246 237 233 236 240 236 223 203 203 210 186 197 205 206 214 234 216 203 194 190 190 217 241 239 242 306 319 337 301 297 302 280 273 280 278 281 272 266 276 290 306 313 314
241 231 231 236 236 237 226 202 202 204 194 209 210 196 218 225 226 223 198 190 193 204 234 247 247 290 285 295 305 305 285 290 290 286 288 289 286 277 276 289 307 312 310
234 229 230 229 229 225 220 204 212 205 208 223 226 208 215 205 199 230 205 183 189 191 225 267 278 282 256 284 312 305 288 283 285 277 282 285 289 295 291 298 304 309 309
245 236 231 232 233 226 219 210 212 213 213 219 226 222 229 213 198 210 206 212 216 213 212 247 275 272 267 243 260 292 313 291 281 273 271 265 274 285 289 286 287 294 301
248 251 236 235 241 234 223 221 217 216 217 222 221 221 227 214 216 218 209 215 229 247 225 220 252 255 256 250 284 303 316 306 286 271 265 261 270 270 274 279 278 285 291
235 241 243 243 247 239 232 230 223 216 217 225 227 226 226 221 218 216 218 215 215 232 234 225 241 239 246 245 231 264 302 307 297 278 262 270 278 275 276 280 284 285 288
245 244 246 251 252 242 234 236 234 223 221 228 234 234 235 235 235 225 226 215 207 213 223 237 246 251 247 230 234 242 269 294 297 261 260 276 288 292 291 288 287 289 293
245 242 241 249 247 248 252 249 248 234 232 234 240 246 247 241 246 245 244 237 221 211 216 232 247 242 247 247 246 244 252 273 275 259 286 285 255 267 285 284 292 295 293
236 238 245 245 243 254 259 252 248 244 238 240 239 242 250 246 241 231 246 255 253 248 234 223 233 240 239 234 230 243 246 249 254 250 268 273 250 253 265 277 286 289 287
240 239 248 237 241 256 263 261 259 249 240 243 244 243 242 237 232 225 225 235 250 255 253 239 229 235 237 226 219 232 244 265 280 259 226 251 261 261 270 275 280 274 279
255 251 245 235 241 259 266 264 264 247 241 247 251 248 246 237 240 239 227 229 244 259 267 262 255 250 250 247 230 215 230 244 270 265 222 227 253 281 272 260 270 275 274
255 254 263 249 244 251 263 262 263 247 247 253 258 256 255 249 245 242 226 218 235 244 240 253 262 262 254 249 246 222 213 228 249 255 223 209 236 272 284 267 259 276 280
Height
1540 1540 1540 1540 1541 1541 1541 1541 1541 1541 1542 1542 1543 1543 1544 1544 1545 1546 1547 1547 1548 1548 1549 1549 1549 1550 1550 1550 1550 1550 1551 1551 1551 1551 1551 1551 1551 1551 1552 1552 1551 1551 1550
1538 1538 1538 1538 1539 1539 1539 1539 1539 1539 1540 1540 1541 1541 1542 1543 1543 1544 1545 1546 1546 1547 1547 1548 1548 1549 1549 1549 1549 1549 1549 1550 1550 1550 1550 1551 1551 1550 1550 1550 1550 1550 1549
1536 1535 1536 1536 1536 1537 1537 1537 1537 1537 1538 1538 1539 1539 1540 1541 1541 1542 1543 1544 1544 1545 1545 1546 1547 1547 1548 1548 1548 1548 1548 1548 1549 1549 1549 1550 1549 1549 1549 1549 1549 1548 1548
1533 1533 1533 1534 1534 1534 1534 1534 1534 1535 1535 1536 1536 1537 1538 1538 1539 1539 1540 1541 1542 1543 1543 1544 1545 1546 1546 1546 1546 1546 1547 1547 1547 1548 1548 1548 1548 1548 1548 1547 1547 1547 1546
1531 1531 1530 1531 1531 1531 1531 1532 1532 1532 1533 1533 1534 1534 1535 1535 1536 1537 1538 1539 1539 1540 1541 1542 1542 1543 1544 1544 1545 1545 1545 1545 1546 1546 1546 1546 1546 1546 1546 1546 1545 1545 1545
1528 1528 1528 1528 1528 1528 1528 1528 1529 1530 1530 1530 1531 1531 1532 1533 1533 1534 1535 1536 1537 1537 1538 1539 1540 1540 1541 1542 1542 1543 1543 1543 1543 1544 1544 1544 1544 1544 1544 1544 1543 1543 1543
1525 1525 1525 1525 1524 1524 1525 1525 1526 1527 1527 1528 1528 1529 1530 1530 1530 1531 1532 1533 1534 1534 1535 1536 1536 1537 1538 1539 1540 1540 1540 1540 1541 1541 1542 1542 1542 1542 1542 1541 1541 1541 1541
1522 1522 1522 1521 1521 1521 1521 1522 1522 1523 1524 1525 1525 1526 1527 1528 1527 1528 1528 1529 1530 1532 1532 1532 1533 1534 1535 1536 1537 1537 1537 1538 1538 1539 1539 1540 1540 1539 1539 1539 1539 1538 1538
1519 1519 1519 1519 1518 1518 1518 1519 1519 1520 1520 1522 1523 1523 1524 1523 1524 1524 1525 1526 1527 1529 1529 1529 1530 1531 1532 1533 1533 1534 1534 1535 1535 1536 1536 1537 1537 1537 1537 1536 1536 1536 1535
1516 1516 1516 1516 1516 1516 1516 1516 1516 1517 1517 1518 1519 1520 1521 1520 1521 1520 1522 1522 1524 1525 1526 1526 1527 1528 1528 1529 1530 1531 1531 1531 1532 1532 1533 1533 1533 1533 1534 1533 1533 1532 1532
1513 1513 1513 1513 1513 1512 1513 1513 1513 1513 1514 1515 1515 1516 1517 1518 1518 1518 1517 1519 1520 1521 1522 1523 1523 1524 1524 1525 1526 1527 1527 1528 1529 1529 1529 1529 1530 1530 1530 1530 1530 1529 1529
1510 1510 1510 1510 1510 1509 1509 1509 1510 1510 1510 1511 1512 1513 1513 1514 1514 1514 1514 1515 1516 1517 1518 1519 1520 1520 1521 1521 1522 1523 1524 1524 1525 1525 1525 1525 1526 1526 1526 1526 1526 1526 1525
1505 1506 1506 1506 1506 1506 1506 1506 1507 1507 1507 1508 1508 1509 1510 1511 1511 1512 1512 1512 1513 1513 1514 1515 1516 1516 1517 1517 1518 1519 1520 1520 1521 1521 1521 1522 1522 1522 1522 1522 1522 1522 1522
1502 1502 1503 1503 1503 1503 1503 1503 1503 1504 1504 1504 1504 1505 1506 1507 1508 1508 1509 1510 1509 1510 1510 1511 1512 1512 1513 1513 1514 1515 1515 1516 1517 1517 1517 1517 1518 1518 1518 1518 1518 1518 1518
1498 1499 1499 1499 1499 1499 1499 1499 1499 1500 1500 1500 1501 1502 1502 1503 1504 1505 1506 1506 1507 1506 1506 1507 1507 1508 1509 1509 1510 1510 1511 1512 1512 1512 1513 1513 1514 1514 1514 1514 1514 1513 1513
1495 1495 1495 1495 1495 1495 1495 1495 1495 1495 1496 1496 1497 1498 1498 1499 1500 1501 1501 1502 1502 1503 1502 1503 1503 1504 1505 1505 1506 1506 1507 1508 1508 1508 1509 1509 1510 1510 1510 1510 1510 1509 1509
1490 1490 1491 1491 1491 1491 1491 1490 1490 1491 1492 1492 1493 1494 1494 1495 1496 1497 1497 1497 1498 1499 1498 1499 1500 1500 1501 1501 1502 1502 1503 1503 1504 1504 1505 1505 1505 1506 1506 1506 1505 1505 1504
1486 1486 1486 1486 1486 1487 1487 1486 1487 1487 1487 1488 1489 1489 1490 1491 1491 1492 1493 1493 1494 1495 1495 1495 1495 1496 1497 1497 1498 1498 1498 1499 1499 1500 1501 1501 1501 1501 1501 1501 1501 1501 1500
1481 1481 1482 1482 1482 1482 1482 1482 1483 1483 1483 1484 1485 1485 1486 1487 1487 1488 1488 1489 1490 1491 1492 1491 1491 1492 1492 1493 1493 1494 1494 1494 1495 1496 1496 1497 1497 1497 1497 1497 1497 1496 1495
1476 1477 1477 1477 1478 1478 1477 1478 1478 1478 1479 1479 1480 1481 1481 1482 1483 1483 1484 1485 1486 1486 1487 1487 1487 1487 1488 1488 1489 1489 1489 1490 1490 1491 1491 1492 1493 1493 1493 1493 1492 1492 1491
1472 1472 1472 1472 1473 1473 1473 1473 1473 1473 1474 1474 1475 1476 1476 1477 1478 1478 1479 1480 1480 1481 1482 1482 1482 1483 1483 1483 1484 1484 1485 1485 1485 1486 1486 1487 1487 1487 1488 1488 1488 1487 1487
1467 1467 1467 1467 1467 1468 1468 1468 1469 1468 1468 1469 1469 1470 1471 1472 1472 1473 1474 1475 1476 1476 1477 1478 1478 1478 1478 1479 1480 1480 1480 1480 1480 1482 1481 1482 1483 1482 1483 1483 1483 1482 1482
1461 1462 1462 1462 1462 1463 1464 1464 1464 1464 1464 1464 1464 1465 1465 1466 1467 1468 1469 1470 1471 1472 1473 1474 1473 1473 1474 1474 1475 1475 1476 1476 1476 1477 1477 1476 1477 1477 1478 1478 1478 1478 1477
1456 1456 1457 1457 1457 1458 1459 1459 1460 1459 1459 1459 1460 1460 1461 1461 1462 1463 1463 1464 1465 1466 1467 1468 1469 1469 1470 1470 1471 1471 1471 1471 1472 1473 1473 1471 1471 1472 1472 1473 1473 1473 1472
1451 1451 1451 1452 1452 1453 1454 1454 1455 1454 1454 1454 1455 1455 1456 1456 1457 1458 1458 1459 1460 1461 1462 1463 1464 1464 1465 1465 1466 1466 1466 1466 1466 1467 1468 1467 1467 1467 1467 1467 1468 1467 1467
1446 1446 1446 1447 1448 1448 1449 1449 1450 1450 1450 1450 1450 1451 1452 1452 1452 1453 1454 1454 1455 1456 1457 1457 1458 1459 1459 1460 1460 1461 1461 1462 1461 1462 1462 1463 1463 1463 1462 1462 1462 1462 1462